Regional Weather Roundup
Issued by NWS Newport/Morehead, NC

Home | Current Version | Previous Version | Text Only | Print | Product List | Glossary On
Versions: 1 2 3 4 5 6 7 8 9 10 11 12 13 14 15 16 17 18 19 20 21 22 23 24 25 26 27 28 29 30 31 32 33 34 35 36 37 38 39 40 41 42 43 44 45 46 47 48 49 50
000
ASUS42 KMHX 281713
RWRMHX
WEATHER ROUNDUP FOR EASTERN NORTH CAROLINA
NATIONAL WEATHER SERVICE NEWPORT/MOREHEAD CITY NC
100 PM EDT WED SEP 28 2016

NOTE: "FAIR" INDICATES FEW OR NO CLOUDS BELOW 12,000 FEET
WITH NO SIGNIFICANT WEATHER AND/OR OBSTRUCTIONS TO VISIBILITY

NCZ015>017-031-032-045>047-102-103-281800-
NORTH COAST

CITY           SKY/WX    TMP DP  RH WIND       PRES   REMARKS
EDENTON        SUNNY     83  66  56 S5        29.98S
ELIZABETH CITY CLOUDY    80  69  69 E8        29.98S
KITTY HAWK     PTSUNNY   82  75  78 E6        29.98R
MANTEO         PTSUNNY   78  71  78 SE6       29.99S

$$

NCZ045>047-081-094-103-104-281800-
CENTRAL COAST

CITY           SKY/WX    TMP DP  RH WIND       PRES   REMARKS
FRISCO         PTSUNNY   83  72  69 SE7       29.99S

$$

NCZ095-097-098-100-101-281800-
SOUTHERN COAST

CITY           SKY/WX    TMP DP  RH WIND       PRES   REMARKS
BEAUFORT       SUNNY     83  67  58 VRB6      29.99R
CEDAR ISLAND   NOT AVBL
JACKSONVILLE   PTSUNNY   83  70  64 MISG      29.96F
PINEY ISLAND   SUNNY    N/A N/A N/A E9        29.98S
WILMINGTON     MOSUNNY   84  72  67 S6        29.97S


$$

NCZ011>013-027>030-043-044-078>080-089-090>093-098-281800-
COASTAL PLAIN

CITY           SKY/WX    TMP DP  RH WIND       PRES   REMARKS
AHOSKIE        SUNNY     77  73  86 CALM      29.96F
CLINTON        PTSUNNY   83  73  72 S5        29.97S
ELIZABETHTOWN  MOSUNNY   84  70  61 S7        29.96F
GOLDSBORO      MOSUNNY   83  73  70 S7        29.94F
GREENVILLE     PTSUNNY   82  72  69 SW6       29.98F
HAVELOCK       SUNNY     84  70  62 E3        29.98F
KENANSVILLE    MOSUNNY   84  72  65 S5        29.96F
KINSTON        SUNNY     84  70  61 SW6       29.97F
NEW BERN       CLOUDY    84  70  62 SW7       29.98F
RICHLANDS      MOSUNNY   86  72  62 S8        29.97F
ROCKY MOUNT    PTSUNNY   82  72  71 SW5       29.96S
WASHINGTON     MOSUNNY   82  71  68 SE6       29.97S
WHITEVILLE     MOSUNNY   85  69  60 S7        29.96S

$$

AMZ130-135-150-152-154-156-158-170-250-252-270-ANZ085-086-088-633-658-670-281800-
MARINE OBSERVATIONS

STATION/POSITION TIME  TEMP    WIND        PRES    WAVE   SWELL
                       AIR SEA DIR/SP/G            HT/PER HT/PER
                 (UTC) (F)     (DEG/KT/KT) (MB)    (FT/S) (FT/S)
CHESAPEAKE LIGHT NOT AVBL
64 E VA BEACH    1650   76 75   60/  6/  8 1015.2    4/ 7   3/ 7
DUCK             1642   77 77   90/  7/  8 1015.0
2 E DUCK         1641      77                N/A     3/ 7   2/12
OREGON INLET     1642   76 76   70/  6/  8 1015.4
13E OREGON INLT  1630      77                N/A     3/ 7   3/ 7
HATTERAS CG      1642   77 76  110/  2/  5 1015.3
DIAMOND BUOY     1650   77 84   50/  6/  8 1015.7    4/ 8   3/ 8
CAPE LOOKOUT     1700   79      90/  3/  4 1015.1
BEAUFORT LAB     1642   79 76  170/  5/  7 1014.9
30 SE NEW RVR IN 1608   81 83  220/  4/  4 1015.3
30 SE NEW RVR IN 1655      84                N/A     3/ 6   2/12
27 SE WRIGHTSVLE 1608   80 81  200/  4/  6 1015.5
5 SE WRIGHTSVLE  1608   80 81  190/  6/  8 1016.5
225 S CAPE HAT   1650   80 83  210/ 12/ 16 1015.4    4/11   3/11
41 SE CHARLESTON 1650   81 83  200/  6/  8 1015.1    3/11   3/11

$$



USA.gov is the U.S. government's official web portal to all federal, state and local government web resources and services.